Goldsboro, NC

3:55 AM EDT on September 25, 2016 (GMT -0400)
Seymour Johnson Air Force Base

Weather History for KGSB - August, 2013

Change the Weather History Date:

Wednesday, August 14, 2013

  Actual Average Record
Temperature  
Mean Temperature 72 °F -  
Max Temperature 75 °F 87 °F 98 °F (1997)
Min Temperature 66 °F 68 °F 62 °F (2006)
Cooling Degree Days 6    
Growing Degree Days 22 (Base 50)    
Moisture  
Dew Point 66 °F    
Average Humidity 82    
Maximum Humidity 100    
Minimum Humidity 66    
Precipitation  
Precipitation 0.02 in - - ()
Sea Level Pressure  
Sea Level Pressure 29.94 in    
Wind  
Wind Speed 8 mph (NNE)    
Max Wind Speed 14 mph    
Max Gust Speed 20 mph    
Visibility 10 miles    
Events Rain    
Averages and records for this station are not official NWS values.
T = Trace of Precipitation, MM = Missing Value Source: NWS Daily Summary

Daily Weather History Graph

Daily Weather History Graph

Search for Another Location

Airport or City:

Trip Planner

Search our weather history database for the weather conditions in past years. The results will help you decide how hot, cold, wet, or windy it might be!

Date:

Astronomy

Aug. 14, 2013 Rise Set
Actual Time 6:30 AM EDT 8:01 PM EDT
Civil Twilight 6:03 AM EDT 8:28 PM EDT
Nautical Twilight 5:31 AM EDT 9:00 PM EDT
Astronomical Twilight 4:57 AM EDT 9:34 PM EDT
Moon 2:08 PM EDT (8/14) No Moon Set
Length of Visible Light 14h 24m
Length of Day
13h 30m
First Quarter, 52% of the Moon is Illuminated
Aug 14
First Quarter
Aug 20
Full
Aug 28
Last Quarter
Sep 5
New
Sep 12
First Quarter

Hourly Weather History & Observations

Time (EDT) Temp. Dew Point Humidity Pressure Visibility Wind Dir Wind Speed Gust Speed Precip Events Conditions
12:29 AM 75.2 °F 75.2 °F 100% 29.81 in 10.0 mi WSW 6.9 mph - N/A   Scattered Clouds
12:58 AM 74.7 °F 74.1 °F 98% 29.82 in 10.0 mi West 6.9 mph - 0.02 in   Clear
1:58 AM 73.8 °F 73.2 °F 98% 29.82 in 10.0 mi WSW 5.8 mph - N/A   Overcast
2:58 AM 72.7 °F 72.1 °F 98% 29.81 in 10.0 mi SW 5.8 mph - N/A   Clear
3:58 AM 73.0 °F 72.5 °F 98% 29.81 in 10.0 mi West 8.1 mph - N/A   Partly Cloudy
4:58 AM 73.2 °F 72.5 °F 98% 29.83 in 10.0 mi West 6.9 mph - N/A   Mostly Cloudy
5:58 AM 73.0 °F 72.5 °F 98% 29.84 in 10.0 mi WNW 5.8 mph - N/A   Scattered Clouds
6:58 AM 73.4 °F 72.5 °F 97% 29.86 in 10.0 mi North 3.5 mph - N/A   Clear
7:58 AM 73.9 °F 72.9 °F 96% 29.90 in 10.0 mi North 6.9 mph - N/A   Mostly Cloudy
8:19 AM 73.4 °F 71.6 °F 94% 29.90 in 10.0 mi NNE 9.2 mph - N/A   Mostly Cloudy
8:26 AM 73.4 °F 71.6 °F 94% 29.90 in 10.0 mi NNE 12.7 mph - N/A   Mostly Cloudy
8:58 AM 73.6 °F 67.8 °F 82% 29.92 in 10.0 mi NNE 10.4 mph - N/A   Mostly Cloudy
9:58 AM 74.8 °F 66.0 °F 74% 29.94 in 10.0 mi NE 12.7 mph 19.6 mph N/A   Scattered Clouds
10:58 AM 74.3 °F 66.0 °F 75% 29.97 in 10.0 mi NNE 12.7 mph - N/A   Partly Cloudy
11:58 AM 73.2 °F 65.7 °F 77% 29.99 in 10.0 mi NNE 11.5 mph - N/A   Scattered Clouds
12:04 PM 73.4 °F 66.2 °F 78% 29.98 in 10.0 mi NE 10.4 mph - N/A Rain Light Rain
12:21 PM 73.4 °F 62.6 °F 69% 29.98 in 10.0 mi NNE 10.4 mph - N/A   Mostly Cloudy
12:58 PM 71.6 °F 60.6 °F 68% 29.99 in 10.0 mi NE 13.8 mph - 0.00 in   Scattered Clouds
1:58 PM 71.4 °F 59.4 °F 66% 29.99 in 10.0 mi NNE 11.5 mph - N/A   Mostly Cloudy
2:58 PM 71.6 °F 59.9 °F 66% 29.99 in 10.0 mi NNE 9.2 mph - N/A   Overcast
3:58 PM 72.1 °F 60.1 °F 66% 30.00 in 10.0 mi ENE 6.9 mph - N/A   Overcast
4:58 PM 72.9 °F 61.2 °F 67% 29.99 in 10.0 mi East 5.8 mph - N/A   Scattered Clouds
5:58 PM 72.1 °F 62.2 °F 71% 29.99 in 10.0 mi ENE 5.8 mph - N/A   Mostly Cloudy
6:58 PM 72.1 °F 61.3 °F 69% 30.01 in 10.0 mi NE 6.9 mph - N/A   Mostly Cloudy
7:58 PM 70.3 °F 59.5 °F 69% 30.02 in 10.0 mi NE 5.8 mph - N/A   Mostly Cloudy
8:58 PM 69.8 °F 60.4 °F 72% 30.04 in 10.0 mi North 5.8 mph - N/A   Overcast
9:58 PM 69.1 °F 61.0 °F 75% 30.08 in 10.0 mi Variable 3.5 mph - N/A   Mostly Cloudy
10:58 PM 68.4 °F 60.3 °F 75% 30.07 in 10.0 mi NNE 5.8 mph - N/A   Mostly Cloudy
11:58 PM 66.7 °F 59.2 °F 77% 30.08 in 10.0 mi NNE 5.8 mph - N/A   Partly Cloudy